Time,TemperatureF,DewpointF,PressureIn,WindDirection,WindDirectionDegrees,WindSpeedMPH,WindSpeedGustMPH,Humidity,HourlyPrecipIn,Conditions,Clouds,dailyrainin,SolarRadiationWatts/m^2,SoftwareType,DateUTC
2013-03-30 00:02:00,44.0,29.0,-100.00,West,277,4.0,9.0,55,0.00,,,0.00,1.000000,,2013-03-30 06:02:00,
2013-03-30 00:12:00,44.0,29.0,-100.00,West,277,4.0,9.0,55,0.00,,,0.00,1.000000,,2013-03-30 06:12:00,
2013-03-30 00:23:00,44.0,29.0,-100.00,West,277,4.0,9.0,55,0.00,,,0.00,1.000000,,2013-03-30 06:23:00,
2013-03-30 00:32:00,44.0,29.0,-100.00,West,277,4.0,9.0,55,0.00,,,0.00,1.000000,,2013-03-30 06:32:00,
2013-03-30 01:02:00,42.0,30.0,-100.00,West,277,4.0,9.0,61,0.00,,,0.00,1.000000,,2013-03-30 07:02:00,
2013-03-30 01:12:00,42.0,30.0,-100.00,West,277,4.0,9.0,61,0.00,,,0.00,1.000000,,2013-03-30 07:12:00,
2013-03-30 01:22:00,42.0,30.0,-100.00,West,277,4.0,9.0,61,0.00,,,0.00,1.000000,,2013-03-30 07:22:00,
2013-03-30 01:32:00,42.0,30.0,-100.00,West,277,4.0,9.0,61,0.00,,,0.00,1.000000,,2013-03-30 07:32:00,
2013-03-30 02:02:00,41.0,29.0,-100.00,West,267,5.0,8.0,61,0.00,,,0.00,0.000000,,2013-03-30 08:02:00,
2013-03-30 02:12:00,41.0,29.0,-100.00,West,267,5.0,8.0,61,0.00,,,0.00,0.000000,,2013-03-30 08:12:00,
2013-03-30 02:22:00,41.0,29.0,-100.00,West,267,5.0,8.0,61,0.00,,,0.00,0.000000,,2013-03-30 08:22:00,
2013-03-30 02:32:00,41.0,29.0,-100.00,West,267,5.0,8.0,61,0.00,,,0.00,0.000000,,2013-03-30 08:32:00,
2013-03-30 03:02:00,41.0,27.0,-100.00,West,280,5.0,8.0,58,0.00,,,0.00,0.000000,,2013-03-30 09:02:00,
2013-03-30 03:12:00,41.0,27.0,-100.00,West,280,5.0,8.0,58,0.00,,,0.00,0.000000,,2013-03-30 09:12:00,
2013-03-30 03:22:00,41.0,27.0,-100.00,West,280,5.0,8.0,58,0.00,,,0.00,0.000000,,2013-03-30 09:22:00,
2013-03-30 03:33:00,41.0,27.0,-100.00,West,280,5.0,8.0,58,0.00,,,0.00,0.000000,,2013-03-30 09:33:00,
2013-03-30 04:02:00,42.0,31.0,-100.00,WSW,254,6.0,12.0,65,0.00,,,0.00,1.000000,,2013-03-30 10:02:00,
2013-03-30 04:13:00,42.0,31.0,-100.00,WSW,254,6.0,12.0,65,0.00,,,0.00,1.000000,,2013-03-30 10:13:00,
2013-03-30 04:23:00,42.0,31.0,-100.00,WSW,254,6.0,12.0,65,0.00,,,0.00,1.000000,,2013-03-30 10:23:00,
2013-03-30 04:33:00,42.0,31.0,-100.00,WSW,254,6.0,12.0,65,0.00,,,0.00,1.000000,,2013-03-30 10:33:00,
2013-03-30 05:03:00,41.0,32.0,-100.00,NW,323,3.0,13.0,71,0.00,,,0.00,0.000000,,2013-03-30 11:03:00,
2013-03-30 05:12:00,41.0,32.0,-100.00,NW,323,3.0,13.0,71,0.00,,,0.00,0.000000,,2013-03-30 11:12:00,
2013-03-30 05:22:00,41.0,32.0,-100.00,NW,323,3.0,13.0,71,0.00,,,0.00,0.000000,,2013-03-30 11:22:00,
2013-03-30 05:33:00,41.0,32.0,-100.00,NW,323,3.0,13.0,71,0.00,,,0.00,0.000000,,2013-03-30 11:33:00,
2013-03-30 06:02:00,40.0,32.0,-100.00,WNW,290,4.0,7.0,72,0.00,,,0.00,0.000000,,2013-03-30 12:02:00,
2013-03-30 06:12:00,40.0,32.0,-100.00,WNW,290,4.0,7.0,72,0.00,,,0.00,0.000000,,2013-03-30 12:12:00,
2013-03-30 06:22:00,40.0,32.0,-100.00,WNW,290,4.0,7.0,72,0.00,,,0.00,0.000000,,2013-03-30 12:22:00,
2013-03-30 06:32:00,40.0,32.0,-100.00,WNW,290,4.0,7.0,72,0.00,,,0.00,0.000000,,2013-03-30 12:32:00,
2013-03-30 07:02:00,39.0,31.0,-100.00,West,275,6.0,11.0,73,0.00,,,0.00,1.000000,,2013-03-30 13:02:00,
2013-03-30 07:12:00,39.0,31.0,-100.00,West,275,6.0,11.0,73,0.00,,,0.00,1.000000,,2013-03-30 13:12:00,
2013-03-30 07:22:00,39.0,31.0,-100.00,West,275,6.0,11.0,73,0.00,,,0.00,1.000000,,2013-03-30 13:22:00,
2013-03-30 07:32:00,39.0,31.0,-100.00,West,275,6.0,11.0,73,0.00,,,0.00,1.000000,,2013-03-30 13:32:00,
2013-03-30 08:02:00,39.0,30.0,-100.00,WNW,301,4.0,9.0,71,0.00,,,0.00,31.000000,,2013-03-30 14:02:00,
2013-03-30 08:11:00,39.0,30.0,-100.00,WNW,301,4.0,9.0,71,0.00,,,0.00,31.000000,,2013-03-30 14:11:00,
2013-03-30 08:23:00,39.0,30.0,-100.00,WNW,301,4.0,9.0,71,0.00,,,0.00,31.000000,,2013-03-30 14:23:00,
2013-03-30 08:32:00,39.0,30.0,-100.00,WNW,301,4.0,9.0,71,0.00,,,0.00,31.000000,,2013-03-30 14:32:00,
2013-03-30 09:03:00,44.0,31.0,-100.00,WNW,287,5.0,10.0,61,0.00,,,0.00,159.000000,,2013-03-30 15:03:00,
2013-03-30 09:12:00,44.0,31.0,-100.00,WNW,287,5.0,10.0,61,0.00,,,0.00,159.000000,,2013-03-30 15:12:00,
2013-03-30 09:22:00,44.0,31.0,-100.00,WNW,287,5.0,10.0,61,0.00,,,0.00,159.000000,,2013-03-30 15:22:00,
2013-03-30 09:33:00,44.0,31.0,-100.00,WNW,287,5.0,10.0,61,0.00,,,0.00,159.000000,,2013-03-30 15:33:00,
2013-03-30 10:03:00,47.0,31.0,-100.00,NW,312,6.0,13.0,54,0.00,,,0.00,196.000000,,2013-03-30 16:03:00,
2013-03-30 10:13:00,47.0,31.0,-100.00,NW,312,6.0,13.0,54,0.00,,,0.00,196.000000,,2013-03-30 16:13:00,
2013-03-30 10:23:00,47.0,31.0,-100.00,NW,312,6.0,13.0,54,0.00,,,0.00,196.000000,,2013-03-30 16:23:00,
2013-03-30 10:33:00,47.0,31.0,-100.00,NW,312,6.0,13.0,54,0.00,,,0.00,196.000000,,2013-03-30 16:33:00,
2013-03-30 11:02:00,50.0,28.0,-100.00,North,350,6.0,12.0,42,0.00,,,0.00,319.000000,,2013-03-30 17:02:00,
2013-03-30 11:13:00,50.0,28.0,-100.00,North,350,6.0,12.0,42,0.00,,,0.00,319.000000,,2013-03-30 17:13:00,
2013-03-30 11:23:00,50.0,28.0,-100.00,North,350,6.0,12.0,42,0.00,,,0.00,319.000000,,2013-03-30 17:23:00,
2013-03-30 11:32:00,50.0,28.0,-100.00,North,350,6.0,12.0,42,0.00,,,0.00,319.000000,,2013-03-30 17:32:00,
2013-03-30 12:03:00,52.0,26.0,-100.00,NNW,346,5.0,13.0,36,0.00,,,0.00,373.000000,,2013-03-30 18:03:00,
2013-03-30 12:12:00,52.0,26.0,-100.00,NNW,346,5.0,13.0,36,0.00,,,0.00,373.000000,,2013-03-30 18:12:00,
2013-03-30 12:22:00,52.0,26.0,-100.00,NNW,346,5.0,13.0,36,0.00,,,0.00,373.000000,,2013-03-30 18:22:00,
2013-03-30 12:32:00,52.0,26.0,-100.00,NNW,346,5.0,13.0,36,0.00,,,0.00,373.000000,,2013-03-30 18:32:00,
2013-03-30 13:03:00,47.0,28.0,-100.00,NW,304,6.0,16.0,47,0.00,,,0.00,279.000000,,2013-03-30 19:03:00,
2013-03-30 13:13:00,47.0,28.0,-100.00,NW,304,6.0,16.0,47,0.00,,,0.00,279.000000,,2013-03-30 19:13:00,
2013-03-30 13:22:00,47.0,28.0,-100.00,NW,304,6.0,16.0,47,0.00,,,0.00,279.000000,,2013-03-30 19:22:00,
2013-03-30 13:32:00,47.0,28.0,-100.00,NW,304,6.0,16.0,47,0.00,,,0.00,279.000000,,2013-03-30 19:32:00,
2013-03-30 14:02:00,47.0,33.0,-100.00,WNW,286,4.0,15.0,57,0.00,,,0.00,267.000000,,2013-03-30 20:02:00,
2013-03-30 14:12:00,47.0,33.0,-100.00,WNW,286,4.0,15.0,57,0.00,,,0.00,267.000000,,2013-03-30 20:12:00,
2013-03-30 14:22:00,47.0,33.0,-100.00,WNW,286,4.0,15.0,57,0.00,,,0.00,267.000000,,2013-03-30 20:22:00,
2013-03-30 14:32:00,47.0,33.0,-100.00,WNW,286,4.0,15.0,57,0.00,,,0.00,267.000000,,2013-03-30 20:32:00,
2013-03-30 15:02:00,48.0,38.0,-100.00,WNW,282,6.0,23.0,69,0.01,,,0.01,404.000000,,2013-03-30 21:02:00,
2013-03-30 15:12:00,48.0,38.0,-100.00,WNW,282,6.0,23.0,69,0.01,,,0.01,404.000000,,2013-03-30 21:12:00,
2013-03-30 15:22:00,48.0,38.0,-100.00,WNW,282,6.0,23.0,69,0.01,,,0.01,404.000000,,2013-03-30 21:22:00,
2013-03-30 15:33:00,48.0,38.0,-100.00,WNW,282,6.0,23.0,69,0.01,,,0.01,404.000000,,2013-03-30 21:33:00,
2013-03-30 16:03:00,36.0,33.0,-100.00,NNW,330,8.0,21.0,88,0.05,,,0.06,386.000000,,2013-03-30 22:03:00,
2013-03-30 16:13:00,36.0,33.0,-100.00,NNW,330,8.0,21.0,88,0.05,,,0.06,386.000000,,2013-03-30 22:13:00,
2013-03-30 16:23:00,36.0,33.0,-100.00,NNW,330,8.0,21.0,88,0.05,,,0.06,386.000000,,2013-03-30 22:23:00,
2013-03-30 16:33:00,36.0,33.0,-100.00,NNW,330,8.0,21.0,88,0.05,,,0.06,386.000000,,2013-03-30 22:33:00,
2013-03-30 17:02:00,42.0,37.0,-100.00,WNW,283,3.0,12.0,83,0.00,,,0.06,213.000000,,2013-03-30 23:02:00,
2013-03-30 17:12:00,42.0,37.0,-100.00,WNW,283,3.0,12.0,83,0.00,,,0.06,213.000000,,2013-03-30 23:12:00,
2013-03-30 17:22:00,42.0,37.0,-100.00,WNW,283,3.0,12.0,83,0.00,,,0.06,213.000000,,2013-03-30 23:22:00,
2013-03-30 17:32:00,42.0,37.0,-100.00,WNW,283,3.0,12.0,83,0.00,,,0.06,213.000000,,2013-03-30 23:32:00,
2013-03-30 18:02:00,42.0,34.0,-100.00,NW,310,7.0,13.0,72,0.00,,,0.06,259.000000,,2013-03-31 00:02:00,
2013-03-30 18:12:00,42.0,34.0,-100.00,NW,310,7.0,13.0,72,0.00,,,0.06,259.000000,,2013-03-31 00:12:00,
2013-03-30 18:22:00,42.0,34.0,-100.00,NW,310,7.0,13.0,72,0.00,,,0.06,259.000000,,2013-03-31 00:22:00,
2013-03-30 18:32:00,42.0,34.0,-100.00,NW,310,7.0,13.0,72,0.00,,,0.06,259.000000,,2013-03-31 00:32:00,
2013-03-30 19:02:00,41.0,34.0,-100.00,NNW,344,4.0,16.0,75,0.01,,,0.07,129.000000,,2013-03-31 01:02:00,
2013-03-30 19:12:00,41.0,34.0,-100.00,NNW,344,4.0,16.0,75,0.01,,,0.07,129.000000,,2013-03-31 01:12:00,
2013-03-30 19:22:00,41.0,34.0,-100.00,NNW,344,4.0,16.0,75,0.01,,,0.07,129.000000,,2013-03-31 01:22:00,
2013-03-30 19:32:00,41.0,34.0,-100.00,NNW,344,4.0,16.0,75,0.01,,,0.07,129.000000,,2013-03-31 01:32:00,
2013-03-30 20:02:00,37.0,31.0,-100.00,NNW,331,3.0,24.0,80,0.00,,,0.07,15.000000,,2013-03-31 02:02:00,
2013-03-30 20:13:00,37.0,31.0,-100.00,NNW,331,3.0,24.0,80,0.00,,,0.07,15.000000,,2013-03-31 02:13:00,
2013-03-30 20:22:00,37.0,31.0,-100.00,NNW,331,3.0,24.0,80,0.00,,,0.07,15.000000,,2013-03-31 02:22:00,
2013-03-30 20:32:00,37.0,31.0,-100.00,NNW,331,3.0,24.0,80,0.00,,,0.07,15.000000,,2013-03-31 02:32:00,
2013-03-30 21:02:00,38.0,29.0,-100.00,NNW,327,6.0,11.0,70,0.00,,,0.07,1.000000,,2013-03-31 03:02:00,
2013-03-30 21:12:00,38.0,29.0,-100.00,NNW,327,6.0,11.0,70,0.00,,,0.07,1.000000,,2013-03-31 03:12:00,
2013-03-30 21:22:00,38.0,29.0,-100.00,NNW,327,6.0,11.0,70,0.00,,,0.07,1.000000,,2013-03-31 03:22:00,
2013-03-30 21:33:00,38.0,29.0,-100.00,NNW,327,6.0,11.0,70,0.00,,,0.07,1.000000,,2013-03-31 03:33:00,
2013-03-30 22:03:00,38.0,-99.9,-100.00,North,353,5.0,15.0,72,0.00,,,0.07,1.000000,,2013-03-31 04:03:00,
2013-03-30 22:13:00,38.0,30.0,-100.00,North,353,5.0,15.0,72,0.00,,,0.07,1.000000,,2013-03-31 04:13:00,
2013-03-30 22:23:00,38.0,30.0,-100.00,North,353,5.0,15.0,72,0.00,,,0.07,1.000000,,2013-03-31 04:23:00,
2013-03-30 22:32:00,38.0,30.0,-100.00,North,353,5.0,15.0,72,0.00,,,0.07,1.000000,,2013-03-31 04:32:00,
2013-03-30 23:02:00,37.0,28.0,-100.00,NNW,342,5.0,13.0,69,0.00,,,0.07,0.000000,,2013-03-31 05:02:00,
2013-03-30 23:12:00,37.0,28.0,-100.00,NNW,342,5.0,13.0,69,0.00,,,0.07,0.000000,,2013-03-31 05:12:00,
2013-03-30 23:22:00,37.0,28.0,-100.00,NNW,342,5.0,13.0,69,0.00,,,0.07,0.000000,,2013-03-31 05:22:00,
2013-03-30 23:32:00,37.0,28.0,-100.00,NNW,342,5.0,13.0,69,0.00,,,0.07,0.000000,,2013-03-31 05:32:00,